Temp
9 10 11 12 11 11 10 10 9 9 9 8 8 9 9 9 8 9 9 9 9 9 9 9 9 9 9 9 9 9 9 10 10 9 8 9 9 9 8 8 8 8 9 9
9 10 12 11 11 11 11 11 10 8 8 9 8 8 8 8 8 9 9 9 9 9 10 9 9 9 8 8 9 9 9 9 10 9 9 9 9 9 8 8 8 8 8 8
9 11 11 11 11 11 11 11 12 10 9 8 9 8 8 8 8 8 9 9 9 9 10 10 9 9 8 8 8 9 9 9 10 10 10 9 9 9 9 8 9 9 8 8
10 11 11 11 11 10 11 11 11 11 10 9 9 9 9 8 8 8 9 9 10 9 9 9 10 9 8 8 7 8 9 9 9 10 10 9 8 9 8 8 8 8 8 8
10 11 11 11 12 10 10 11 12 11 10 10 8 10 11 9 9 9 9 9 9 9 9 10 10 9 8 8 8 8 9 9 9 9 9 9 9 8 8 8 9 8 8 9
10 10 11 12 11 11 10 10 10 10 10 9 10 10 11 9 11 10 9 9 10 9 9 9 9 9 9 8 8 8 9 8 9 9 9 9 9 9 9 9 9 9 9 9
11 12 12 12 10 11 11 11 9 9 9 8 10 9 12 12 12 12 11 9 9 9 9 9 9 10 9 9 8 9 9 9 9 9 9 9 9 9 8 9 9 9 9 9
11 13 13 13 12 11 11 12 11 9 8 10 10 9 12 11 12 13 11 11 10 9 8 9 9 9 9 9 9 9 9 9 9 9 8 8 8 8 8 8 8 9 9 9
11 12 12 13 13 12 12 12 12 10 10 10 10 11 13 12 14 14 13 12 10 10 10 10 9 9 9 9 9 9 9 9 9 9 9 8 8 8 9 9 8 9 9 9
11 11 13 13 13 12 13 12 10 9 9 10 10 12 14 14 14 13 12 13 13 12 11 10 10 9 9 9 9 9 9 9 9 9 9 9 8 8 9 9 9 9 9 9
12 11 12 13 13 13 13 12 13 12 13 11 8 12 14 14 14 13 12 12 12 12 10 11 10 10 11 10 9 9 9 9 9 10 9 9 9 9 9 9 9 9 9 9
11 12 12 12 13 13 13 12 13 13 13 13 13 13 14 14 13 13 11 12 12 11 11 10 10 10 10 10 9 10 9 9 9 9 10 10 9 9 9 9 9 9 9 9
11 11 12 11 11 12 11 12 13 13 13 13 12 13 13 13 12 12 11 12 12 11 12 10 10 10 10 10 10 9 10 9 8 8 9 10 10 9 9 9 9 9 9 9
11 10 11 10 9 10 10 11 12 13 13 13 13 14 12 11 12 12 12 12 12 12 12 11 11 10 10 10 10 10 10 9 9 8 9 9 9 10 9 9 8 9 9 9
10 10 10 10 9 9 11 11 12 13 13 13 14 12 12 12 12 12 12 12 12 12 12 11 11 11 11 10 9 9 9 9 9 8 9 9 9 9 9 10 9 9 9 9
10 10 10 10 9 10 10 10 11 12 13 12 11 11 10 11 11 11 12 12 12 13 13 13 12 12 10 9 8 8 8 8 8 8 8 8 8 9 9 9 10 10 9 9
10 10 10 10 9 10 9 9 9 9 10 10 11 10 10 10 11 11 12 12 12 12 11 11 10 10 9 9 9 8 8 8 8 8 7 7 7 8 8 8 8 9 9 9
9 9 10 10 9 7 8 7 7 9 9 9 9 9 10 10 10 10 10 10 10 9 9 9 9 9 9 9 8 8 8 8 8 8 7 7 7 7 7 8 8 8 8 8
9 9 9 9 8 7 7 8 7 8 8 8 8 9 9 9 9 9 9 8 8 8 9 8 9 9 9 8 7 8 8 8 8 8 7 7 7 7 7 7 8 8 7 7
9 9 9 9 8 7 7 7 8 8 7 7 7 8 8 9 8 9 9 9 9 9 9 8 8 8 8 9 9 7 7 7 7 7 7 7 8 7 6 7 7 7 7 7
8 8 8 8 8 8 8 8 8 7 8 7 7 7 8 8 8 8 9 9 8 9 9 8 8 8 7 7 7 7 8 7 8 8 7 7 8 7 7 7 7 7 8 8
7 7 7 7 7 7 7 7 7 8 8 7 6 6 6 7 8 8 8 8 8 8 8 8 8 7 7 7 7 7 7 7 8 8 7 7 7 7 7 7 7 7 8 8
6 6 7 7 6 6 6 6 6 6 6 6 6 6 6 6 6 7 7 7 7 7 7 7 7 7 7 7 7 7 7 7 7 6 6 6 7 7 6 7 7 7 7 8
6 6 6 6 6 6 5 5 6 6 5 5 5 5 6 6 6 6 6 6 6 6 6 7 7 6 6 7 7 7 7 6 7 6 6 5 5 5 6 6 6 6 7 6
6 6 6 6 5 5 5 5 4 5 5 4 5 5 5 6 6 6 6 6 5 5 5 6 6 6 6 6 6 6 6 6 5 5 5 4 5 4 5 6 6 6 6 6
6 6 6 5 5 5 4 4 4 4 4 4 4 4 4 5 5 5 5 5 5 4 5 5 5 4 5 5 5 5 5 5 5 4 3 4 4 3 4 4 4 4 4 5
Height
3149 3152 3154 3157 3159 3160 3160 3162 3162 3160 3160 3159 3162 3166 3166 3172 3176 3179 3183 3186 3189 3192 3197 3199 3200 3201 3202 3204 3207 3208 3210 3211 3212 3214 3216 3218 3222 3225 3226 3228 3230 3232 3234 3236
3149 3150 3155 3155 3157 3159 3160 3160 3161 3161 3158 3158 3157 3159 3163 3168 3172 3178 3182 3185 3189 3192 3196 3198 3200 3202 3203 3204 3205 3208 3209 3211 3212 3214 3217 3219 3221 3225 3226 3227 3230 3232 3233 3235
3146 3151 3153 3154 3156 3159 3158 3157 3158 3158 3160 3161 3160 3162 3165 3167 3170 3176 3179 3184 3188 3191 3194 3197 3200 3202 3203 3203 3205 3208 3210 3212 3213 3214 3216 3218 3221 3223 3226 3228 3231 3232 3233 3234
3146 3149 3151 3152 3155 3160 3159 3159 3159 3157 3159 3160 3160 3163 3161 3164 3168 3172 3177 3181 3185 3188 3192 3197 3199 3202 3202 3204 3205 3207 3210 3212 3213 3215 3217 3219 3221 3224 3227 3229 3231 3232 3233 3235
3146 3147 3150 3151 3153 3158 3160 3159 3159 3159 3160 3160 3160 3161 3157 3159 3162 3167 3172 3179 3182 3185 3189 3193 3197 3201 3201 3203 3205 3206 3209 3211 3213 3215 3216 3219 3220 3222 3225 3227 3229 3231 3232 3234
3142 3143 3146 3149 3153 3155 3157 3161 3159 3159 3160 3159 3156 3159 3154 3153 3154 3164 3169 3173 3177 3182 3186 3191 3196 3198 3200 3202 3204 3205 3208 3210 3212 3214 3215 3217 3220 3221 3224 3226 3229 3230 3231 3233
3140 3141 3142 3146 3151 3154 3154 3157 3159 3162 3159 3159 3157 3158 3152 3155 3158 3160 3163 3168 3173 3178 3183 3188 3192 3196 3199 3201 3203 3204 3206 3209 3211 3213 3214 3216 3219 3221 3223 3224 3227 3229 3231 3232
3139 3141 3142 3142 3144 3149 3153 3153 3156 3162 3161 3157 3157 3154 3151 3151 3153 3156 3159 3165 3170 3174 3180 3185 3190 3194 3198 3200 3202 3204 3205 3207 3210 3213 3214 3215 3217 3220 3221 3223 3224 3226 3229 3231
3139 3139 3139 3141 3142 3147 3149 3152 3152 3162 3160 3159 3156 3153 3148 3148 3151 3152 3155 3161 3166 3170 3175 3180 3185 3190 3194 3198 3201 3203 3204 3206 3208 3211 3213 3215 3217 3219 3220 3222 3223 3225 3227 3228
3138 3139 3138 3141 3144 3147 3147 3150 3153 3165 3163 3157 3156 3154 3148 3148 3149 3150 3154 3158 3162 3164 3169 3174 3179 3185 3190 3195 3199 3201 3203 3205 3207 3209 3211 3213 3216 3218 3219 3220 3222 3224 3224 3226
3135 3138 3140 3139 3140 3143 3146 3145 3148 3154 3155 3152 3156 3152 3148 3148 3150 3150 3154 3158 3160 3163 3165 3171 3175 3180 3186 3191 3196 3198 3201 3203 3205 3208 3210 3212 3214 3216 3219 3220 3221 3222 3223 3225
3135 3136 3137 3139 3139 3141 3141 3142 3145 3148 3151 3150 3150 3149 3148 3148 3149 3150 3153 3155 3158 3159 3164 3167 3172 3177 3181 3187 3192 3196 3199 3201 3203 3206 3208 3210 3211 3213 3216 3218 3219 3220 3222 3222
3135 3135 3136 3138 3141 3141 3141 3142 3142 3146 3146 3147 3149 3149 3147 3148 3150 3151 3153 3154 3155 3156 3161 3165 3168 3174 3178 3184 3188 3192 3195 3198 3201 3203 3206 3208 3209 3210 3213 3215 3217 3218 3220 3220
3138 3137 3137 3139 3142 3144 3143 3142 3141 3143 3144 3145 3145 3146 3148 3149 3151 3152 3153 3153 3154 3158 3162 3165 3166 3170 3175 3181 3185 3189 3190 3194 3197 3200 3202 3204 3206 3208 3210 3212 3215 3215 3216 3218
3138 3139 3140 3140 3142 3144 3141 3141 3139 3140 3141 3142 3143 3145 3147 3148 3150 3150 3152 3154 3155 3157 3158 3162 3166 3170 3172 3178 3181 3184 3187 3189 3190 3191 3197 3199 3201 3203 3205 3207 3209 3212 3213 3215
3138 3140 3141 3144 3145 3143 3142 3143 3140 3139 3138 3140 3141 3144 3147 3149 3151 3153 3154 3154 3156 3157 3157 3159 3160 3162 3166 3169 3174 3177 3180 3182 3185 3186 3188 3191 3194 3199 3201 3203 3205 3207 3210 3212
3140 3140 3140 3141 3145 3142 3145 3148 3145 3142 3141 3144 3146 3148 3149 3151 3152 3153 3154 3154 3154 3154 3154 3154 3156 3159 3160 3162 3167 3170 3174 3176 3179 3181 3183 3184 3188 3193 3196 3199 3202 3203 3205 3207
3140 3140 3140 3141 3143 3144 3146 3148 3148 3147 3146 3146 3148 3149 3151 3152 3152 3152 3152 3154 3153 3153 3153 3154 3156 3157 3157 3158 3162 3164 3167 3169 3172 3175 3177 3178 3181 3187 3191 3195 3196 3197 3198 3199
3140 3140 3141 3141 3143 3147 3147 3147 3147 3147 3148 3148 3150 3151 3152 3153 3154 3151 3152 3152 3153 3154 3156 3157 3156 3150 3151 3154 3155 3160 3160 3162 3165 3169 3172 3174 3176 3180 3184 3187 3188 3190 3192 3190
3139 3139 3141 3141 3143 3145 3147 3146 3145 3146 3147 3146 3148 3149 3151 3153 3153 3153 3152 3152 3152 3153 3152 3152 3152 3153 3155 3157 3152 3153 3154 3148 3159 3164 3169 3172 3175 3177 3181 3182 3184 3187 3188 3188
3140 3139 3140 3141 3142 3143 3145 3146 3146 3147 3148 3144 3146 3149 3151 3152 3154 3153 3153 3151 3151 3150 3149 3149 3149 3150 3152 3152 3154 3157 3157 3160 3163 3163 3166 3170 3172 3173 3175 3177 3179 3181 3182 3182
3139 3139 3139 3140 3142 3143 3142 3144 3145 3144 3142 3143 3145 3147 3150 3152 3151 3151 3150 3150 3148 3147 3148 3148 3149 3149 3150 3150 3150 3153 3156 3157 3159 3162 3164 3165 3167 3169 3171 3173 3175 3175 3174 3174
3138 3138 3138 3140 3140 3140 3141 3142 3141 3141 3142 3143 3144 3146 3147 3149 3150 3149 3148 3148 3148 3147 3147 3146 3146 3147 3149 3148 3151 3152 3152 3154 3156 3158 3158 3160 3162 3165 3167 3169 3171 3171 3170 3169
3136 3137 3137 3138 3138 3138 3139 3140 3140 3139 3141 3142 3143 3144 3145 3145 3146 3146 3146 3145 3145 3146 3146 3145 3144 3144 3145 3148 3148 3149 3150 3151 3153 3154 3155 3156 3157 3160 3161 3163 3165 3167 3168 3166
3135 3134 3134 3134 3134 3134 3135 3135 3134 3136 3138 3139 3140 3141 3141 3142 3142 3142 3142 3142 3142 3142 3143 3143 3145 3145 3144 3144 3146 3147 3147 3148 3148 3149 3151 3153 3154 3156 3157 3159 3160 3163 3164 3163
3130 3131 3131 3130 3130 3131 3132 3130 3129 3131 3135 3137 3138 3138 3139 3139 3139 3139 3139 3139 3140 3140 3141 3142 3143 3143 3144 3144 3144 3145 3146 3146 3145 3145 3146 3147 3149 3150 3152 3152 3153 3157 3157 3159
Wind_Speed
21 19 22 18 13 11 2 4 14 15 14 8 24 26 28 29 30 32 30 26 21 17 11 10 5 3 2 5 6 8 8 8 9 14 16 18 15 17 16 15 13 11 10 13
18 23 24 17 13 12 8 12 12 7 5 7 6 16 25 34 39 34 33 29 24 23 16 11 8 4 4 4 3 7 9 10 8 11 17 14 12 15 16 13 12 12 12 12
17 21 22 14 13 8 6 7 8 7 10 9 3 6 11 25 36 33 31 29 27 26 18 13 9 6 4 4 2 7 8 11 8 7 10 14 15 17 14 12 9 9 10 16
15 19 13 9 11 11 6 3 4 6 8 4 15 10 23 24 35 24 30 30 27 28 22 16 10 7 5 3 9 8 10 9 8 8 7 11 12 11 11 12 14 11 10 14
9 6 8 9 15 18 2 6 2 1 7 5 12 4 9 27 38 37 30 35 29 31 24 19 13 10 6 7 7 9 12 11 11 10 10 11 15 15 15 13 11 11 14 15
14 13 10 9 3 17 12 5 9 5 4 3 7 10 5 27 30 39 36 37 34 33 29 25 18 12 14 12 11 11 9 9 12 11 12 11 13 14 13 11 10 11 14 15
6 12 15 10 12 24 24 16 5 3 2 4 8 8 6 6 11 17 36 38 32 33 33 26 24 18 16 15 13 11 12 10 11 11 12 13 13 11 10 10 11 11 13 16
3 5 8 12 15 25 21 12 10 1 3 2 8 7 4 6 8 11 20 31 35 33 31 29 26 23 20 16 14 12 11 13 12 12 11 13 15 12 10 12 11 11 13 16
2 0 2 3 19 28 19 9 17 4 13 2 4 5 7 3 6 9 16 18 31 35 34 34 30 29 19 18 18 15 11 12 14 13 14 13 14 13 12 12 12 11 12 14
9 4 3 3 14 23 20 18 15 12 3 3 3 3 4 7 3 10 14 9 10 19 34 34 25 30 26 23 20 16 15 13 12 14 13 13 13 14 13 14 13 11 11 11
10 6 0 6 10 19 17 21 10 19 11 5 3 6 9 8 10 7 9 7 5 17 36 32 32 21 26 27 25 21 19 17 14 14 15 14 14 14 14 13 14 11 11 11
4 4 3 3 4 10 9 10 15 6 5 4 2 5 16 14 14 9 8 4 13 17 21 37 38 27 26 27 25 21 20 21 16 15 16 17 17 16 16 15 15 13 14 11
2 5 2 8 13 10 11 11 7 9 4 5 5 3 12 13 11 9 10 13 11 12 16 22 32 35 30 31 25 30 29 25 21 20 18 17 19 19 18 18 17 16 15 15
4 12 11 9 7 9 9 9 10 7 5 5 4 10 14 6 4 8 8 4 3 6 5 8 15 22 27 34 29 24 26 25 21 23 20 19 19 21 20 19 20 18 16 16
6 11 9 15 11 13 13 9 4 7 5 6 5 14 19 9 6 5 4 5 4 5 5 8 13 13 17 22 30 30 27 25 26 29 28 28 24 22 21 22 20 19 19 19
5 6 9 9 7 13 19 10 11 11 7 10 17 19 12 7 3 6 5 3 3 9 10 14 19 18 23 24 28 31 29 27 26 27 23 30 27 25 22 21 23 20 20 18
5 4 3 7 2 3 4 10 15 14 13 11 13 11 9 5 5 3 2 3 6 9 10 13 23 25 27 26 29 34 31 31 29 29 31 25 26 27 25 27 26 22 20 20
4 6 3 1 6 1 12 7 2 6 13 13 12 12 11 5 2 4 6 4 3 1 4 6 17 20 20 27 27 30 32 30 29 25 30 31 36 32 29 27 28 26 24 24
5 6 6 2 6 14 10 8 9 6 1 3 7 7 7 4 0 1 1 4 3 3 5 5 4 1 28 13 21 23 28 27 28 25 21 22 29 33 32 33 34 26 25 19
3 5 4 4 3 3 10 9 7 9 8 3 5 7 5 7 4 1 4 4 3 3 2 2 2 6 5 2 7 8 7 4 8 11 8 9 15 5 18 21 20 18 15 13
4 6 4 6 3 3 7 6 4 11 9 10 7 11 8 7 2 5 8 11 8 7 7 3 3 1 1 4 4 5 7 12 11 11 11 14 16 16 18 20 22 23 24 26
3 4 6 6 4 5 9 8 11 12 15 16 13 13 10 8 8 11 11 10 10 9 8 9 7 5 7 7 8 11 13 14 14 16 17 15 15 17 19 21 22 23 23 22
2 1 1 3 3 3 4 7 8 6 12 12 12 8 8 7 9 9 7 7 7 7 7 3 7 8 8 9 10 11 13 15 15 17 16 15 14 15 15 14 12 14 13 14
7 6 7 8 8 9 8 9 12 12 12 9 10 11 10 8 9 11 11 12 13 11 9 7 7 9 10 13 15 14 13 13 15 15 15 14 14 12 13 14 15 17 16 16
10 9 11 15 15 14 12 10 17 16 15 15 14 14 16 12 12 11 12 11 13 11 9 7 8 10 12 12 14 17 18 16 15 16 13 14 17 17 16 18 18 20 18 17
15 15 17 18 15 12 13 11 19 21 17 14 14 12 11 10 10 9 7 5 6 7 7 7 6 5 6 8 10 12 14 15 15 14 14 14 16 16 19 18 18 19 19 21
Wind_Direction
185 202 199 204 212 223 0 270 252 265 238 260 210 211 193 180 188 187 199 207 208 204 218 218 167 150 170 187 209 184 187 181 177 174 182 177 179 171 164 165 166 163 168 188
189 207 201 217 225 231 223 292 244 231 223 3 330 205 179 183 185 195 199 207 209 207 214 204 201 190 173 210 241 166 177 183 169 173 194 190 199 191 170 177 182 190 198 190
201 203 210 227 235 203 298 277 295 234 188 192 177 196 202 211 182 195 205 210 218 210 215 212 226 189 156 181 226 186 204 191 182 183 173 180 196 205 188 186 193 192 165 166
223 217 196 208 203 186 257 125 261 236 200 190 181 191 228 214 200 208 213 215 219 213 219 235 209 199 143 174 221 211 207 210 195 182 198 184 200 197 188 207 209 198 186 188
195 196 220 241 184 198 195 187 230 270 226 246 199 215 205 210 211 206 208 218 216 216 229 225 242 231 181 182 207 187 197 208 213 201 194 196 183 182 196 207 198 200 212 194
254 234 220 208 238 211 211 230 109 97 197 299 230 208 248 210 214 214 209 222 220 217 219 218 240 233 212 191 179 184 204 207 207 210 199 198 204 193 192 200 205 206 204 207
273 237 214 237 189 212 190 177 55 14 10 238 215 224 256 167 211 225 223 213 212 209 212 223 226 230 222 202 199 198 198 201 206 216 205 197 195 207 207 196 196 194 200 209
325 161 218 213 210 183 185 207 129 134 211 248 212 245 262 238 243 216 217 223 219 217 214 218 229 229 228 212 209 215 205 193 199 209 215 217 216 222 223 222 214 196 199 208
281 309 229 64 206 183 174 162 181 326 280 242 221 288 312 322 140 181 202 208 225 227 229 228 226 228 228 233 231 218 213 202 202 208 216 219 218 217 208 216 224 224 214 218
260 293 272 207 181 194 206 164 138 204 296 255 199 154 332 167 170 141 173 203 227 225 228 227 230 226 230 237 241 220 223 220 210 211 212 214 219 220 212 206 217 224 233 232
217 193 283 235 206 198 184 190 181 183 216 183 150 237 195 214 239 248 194 172 212 230 223 230 232 233 227 237 240 223 222 220 223 226 221 213 214 219 224 220 216 219 220 224
191 169 239 137 141 199 201 168 217 205 194 209 265 212 215 227 229 256 214 240 313 240 228 224 227 237 231 230 231 229 219 220 227 236 239 231 221 222 223 230 235 222 218 216
29 82 142 134 103 124 80 78 140 186 220 231 171 220 207 206 218 234 237 296 318 188 204 215 219 229 231 224 230 223 236 239 236 241 235 238 236 227 227 236 236 238 234 228
68 82 86 95 63 56 59 72 97 182 183 192 201 190 180 157 184 225 245 263 240 213 219 217 212 213 225 225 235 230 230 237 236 229 233 236 238 239 231 229 240 240 240 237
160 101 99 65 86 81 72 65 111 185 177 211 210 178 175 172 166 163 142 102 143 209 206 224 237 238 224 224 233 231 238 242 244 223 231 241 241 240 237 233 228 237 242 242
140 157 145 90 134 119 59 50 105 122 163 170 150 152 156 160 125 93 78 58 302 271 274 255 226 229 235 242 229 230 239 240 242 243 234 232 223 238 235 242 233 227 235 241
130 168 132 136 78 146 138 60 66 101 111 126 145 130 114 107 89 40 323 285 298 295 278 264 227 223 219 226 231 231 234 240 238 249 243 255 217 232 229 232 239 233 236 240
156 154 209 148 130 104 167 130 66 58 94 105 127 144 149 182 226 315 321 306 282 41 179 271 242 262 247 215 226 231 234 234 236 238 249 259 227 230 231 231 233 229 237 243
162 163 144 166 87 135 146 185 212 232 160 113 89 100 107 118 251 9 351 87 114 141 141 143 3 305 231 265 269 255 241 228 221 236 240 244 215 220 233 238 228 244 261 269
222 195 189 151 118 170 164 154 180 206 203 179 148 138 150 175 137 118 25 354 352 26 0 346 61 94 117 243 302 246 244 197 205 234 180 203 202 224 213 220 224 232 255 261
162 166 174 165 138 204 189 191 213 203 216 209 171 158 157 155 177 256 271 302 295 287 292 290 271 266 230 223 248 203 206 217 206 217 213 250 255 242 235 241 250 257 259 262
283 198 183 179 167 225 225 220 236 249 221 208 193 192 190 200 213 227 246 264 282 297 296 284 267 245 253 238 226 249 244 235 241 247 248 248 250 251 253 256 261 265 267 265
246 199 195 218 187 176 214 243 267 276 226 224 237 219 221 221 214 206 234 244 244 274 295 290 262 252 228 238 230 220 230 240 243 244 244 246 250 251 251 253 261 269 270 268
244 269 264 274 267 267 256 255 262 261 259 241 242 254 250 232 237 245 257 252 255 259 257 265 266 258 246 230 237 242 240 231 236 238 239 239 238 237 241 247 269 282 279 269
257 268 282 282 277 284 282 260 242 243 242 244 258 265 266 273 276 269 266 260 251 254 259 253 258 259 259 252 234 240 244 244 241 238 244 244 249 252 248 252 263 269 264 264
258 268 277 288 281 277 299 264 245 238 232 227 238 256 240 250 259 264 282 270 251 253 256 261 261 263 257 255 264 259 250 249 241 232 229 245 255 249 251 260 268 268 253 254